Weather in Valga

Estonia     57°46′39″N   26°02′00″E
temp.,
°C
wind,
m/s
gust,
m/s
humid.,
%
clouds,
%
prec.,
mm/h
press.,
hPa
HPBL,
m
16 april, fri
fri1600:00+5ne51158100 0.0 1025661
03:00+4ne51274100 0.3 1024554
06:00+3ne5137899 0.4 1024482
09:00+6ne5137299 0.4 1024559
12:00+10ne61058100 0.0 1023760
15:00+12ene6954100 0.0 10231099
18:00+13ene5115896 0.0 10231201
21:00+9ne41169100 0.0 1024591
17 april, sat
sat1700:00+8ne4126895 0.0 1024554
03:00+6ne41173100 0.0 1024428
06:00+5ne41176100 0.0 1025396
09:00+7ene41068100 0.0 1025514
12:00+11ene5858100 0.0 1025910
15:00+13ene5759100 0.0 10251056
18:00+12ene4865100 0.0 1025855
21:00+10ene2778100 0.0 1026183
18 april, sun
sun1800:00+7ne288897 0.0 1026190
03:00+6ne3107976 0.0 1026248
06:00+4ne310795 0.0 1026254
09:00+8ene49590 0.0 1026459
12:00+13ene47420 0.0 10261126
15:00+15ene56360 0.0 10251584
18:00+14ene46393 0.0 10251763
21:00+8ne27622 0.0 1026119
19 april, mon
mon1900:00+6ne27705 0.0 1026134
03:00+5ne27765 0.0 1026148
06:00+3ene28825 0.0 1026157
09:00+9ene36613 0.0 1026413
12:00+13e46445 0.0 10251866
15:00+15ene463794 0.0 10242424
18:00+12ene475198 0.0 10231025
21:00+9ene386732 0.0 1023337
20 april, tue
tue2000:00+6ene27845 0.0 1023172
03:00+5ene279083 0.0 1021224
06:00+7ene3883100 0.0 1020488
09:00+7ene4880100 0.0 1019679
12:00+10e4664100 0.2 10171259
15:00+11ene465696 0.3 10151457
18:00+10ne476098 0.1 10131024
21:00+8nne4964100 0.1 1012595